Location: Bakhuizen
(52.8696°N, 5.4575°E)
Time: 04:51:08
(UTC+00:00)

Cosmos 2084 Rocket - Pass Details

Date: 11 May 2021
Orbit: 522 x 658 km, 62.8° (Epoch: 14 June)

Event Time Altitude Azimuth Distance (km) Brightness Sun altitude
Rises 21:50:36 0° 311° (NW) 2,755 8.2 -15.5°
Reaches altitude 10° 21:52:47 10° 312° (NW) 1,877 7.1 -15.7°
Maximum altitude 21:57:02 89° 235° (SW) 594 3.4 -15.9°
Enters shadow 21:59:18 28° 134° (SE) 1,128 4.4 -16.1°
